This is the latest recevied weather packets stored in our database for station/object M0XZS-2. If no packets are shown the sender has not sent any weather packets the latest 10 day(s).
| Time | Temp. | Humidity | Pressure | Rain* | Wind** | Luminosity | Snow |
|---|---|---|---|---|---|---|---|
| 1777585053 | 15° C | 40% | 1026.6 hPa | - | - | - | - |
| 1777584153 | 15° C | 39% | 1026.7 hPa | - | - | - | - |
| 1777583253 | 15° C | 39% | 1026.6 hPa | - | - | - | - |
| 1777582352 | 15.56° C | 39% | 1026.6 hPa | - | - | - | - |
| 1777581454 | 15.56° C | 38% | 1026.8 hPa | - | - | - | - |
| 1777580554 | 16.11° C | 38% | 1026.9 hPa | - | - | - | - |
| 1777579654 | 16.11° C | 38% | 1026.9 hPa | - | - | - | - |
| 1777578754 | 16.11° C | 37% | 1026.9 hPa | - | - | - | - |
| 1777577854 | 16.67° C | 37% | 1026.8 hPa | - | - | - | - |
| 1777576954 | 17.22° C | 36% | 1026.9 hPa | - | - | - | - |
| 1777576053 | 17.78° C | 35% | 1026.7 hPa | - | - | - | - |
| 1777575153 | 18.33° C | 34% | 1026.8 hPa | - | - | - | - |
| 1777574253 | 18.89° C | 34% | 1026.5 hPa | - | - | - | - |
| 1777573353 | 18.33° C | 35% | 1026.6 hPa | - | - | - | - |
| 1777572453 | 18.33° C | 35% | 1026.5 hPa | - | - | - | - |
| 1777571553 | 18.89° C | 35% | 1026.7 hPa | - | - | - | - |
| 1777570653 | 19.44° C | 33% | 1027 hPa | - | - | - | - |
| 1777569753 | 20° C | 33% | 1027 hPa | - | - | - | - |
| 1777568853 | 20° C | 34% | 1027 hPa | - | - | - | - |
| 1777567953 | 21.11° C | 33% | 1027.1 hPa | - | - | - | - |
| 1777567053 | 21.67° C | 32% | 1027.2 hPa | - | - | - | - |
| 1777566153 | 22.22° C | 31% | 1027.3 hPa | - | - | - | - |
| 1777564353 | 23.33° C | 30% | 1027.6 hPa | - | - | - | - |
| 1777563452 | 23.89° C | 30% | 1027.7 hPa | - | - | - | - |
| 1777562552 | 24.44° C | 30% | 1027.8 hPa | - | - | - | - |
* Rain since midnight (hover to see other rain measurements)
** Current wind speed in m/s (hover to see current wind gust speed)